| time (UTC) | temp F | wind direction | speed knots | gust knots | rain 1hr in | rain 24hr in | rain mn in | humidity % | barometer mb |
| 20260507030047 | 53 | 329 | 3.5 | 6.1 | 0.00 | 0.00 | 0.00 | 84 | 1027.6 |
| 20260507025646 | 53 | 331 | 4.3 | 6.1 | 0.00 | 0.00 | 0.00 | 83 | 1027.6 |
| 20260507025245 | 53 | 337 | 2.6 | 6.1 | 0.00 | 0.00 | 0.00 | 83 | 1027.6 |
| 20260507024844 | 53 | 45 | 2.6 | 5.2 | 0.00 | 0.00 | 0.00 | 82 | 1027.5 |
| 20260507024443 | 53 | 345 | 4.3 | 5.2 | 0.00 | 0.00 | 0.00 | 82 | 1027.4 |
| 20260507024042 | 54 | 355 | 5.2 | 5.2 | 0.00 | 0.00 | 0.00 | 81 | 1027.4 |
| 20260507023641 | 54 | 353 | 3.5 | 5.2 | 0.00 | 0.00 | 0.00 | 80 | 1027.4 |
| 20260507023240 | 54 | 334 | 2.6 | 7.0 | 0.00 | 0.00 | 0.00 | 80 | 1027.3 |
| 20260507022840 | 54 | 327 | 2.6 | 4.3 | 0.00 | 0.00 | 0.00 | 79 | 1027.2 |
| 20260507022439 | 55 | 325 | 4.3 | 4.3 | 0.00 | 0.00 | 0.00 | 79 | 1027.2 |
| 20260507021637 | 55 | 357 | 1.7 | 6.1 | 0.00 | 0.00 | 0.00 | 77 | 1027.2 |
| 20260507021236 | 55 | 355 | 2.6 | 4.3 | 0.00 | 0.00 | 0.00 | 76 | 1027.1 |
| 20260507020835 | 56 | 350 | 2.6 | 5.2 | 0.00 | 0.00 | 0.00 | 76 | 1027.2 |
| 20260507020434 | 56 | 349 | 4.3 | 4.3 | 0.00 | 0.00 | 0.00 | 75 | 1027.2 |
| 20260507020033 | 56 | 325 | 1.7 | 4.3 | 0.00 | 0.00 | 0.00 | 74 | 1027.1 |
| 20260507015632 | 57 | 318 | 3.5 | 5.2 | 0.00 | 0.00 | 0.00 | 74 | 1027.2 |
| 20260507015231 | 57 | 318 | 1.7 | 6.1 | 0.00 | 0.00 | 0.00 | 73 | 1027.1 |
| 20260507014830 | 57 | 348 | 1.7 | 5.2 | 0.00 | 0.00 | 0.00 | 73 | 1027.2 |
| 20260507014429 | 58 | 230 | 2.6 | 4.3 | 0.00 | 0.00 | 0.00 | 72 | 1027.1 |
| 20260507014028 | 58 | 316 | 2.6 | 5.2 | 0.00 | 0.00 | 0.00 | 72 | 1027.1 |
| 20260507013628 | 58 | 306 | 3.5 | 4.3 | 0.00 | 0.00 | 0.00 | 72 | 1027.1 |
| 20260507013227 | 59 | 318 | 3.5 | 6.1 | 0.00 | 0.00 | 0.00 | 71 | 1027.1 |
| 20260507012825 | 59 | 355 | 4.3 | 5.2 | 0.00 | 0.00 | 0.00 | 71 | 1027.1 |
| 20260507012424 | 59 | 3 | 3.5 | 5.2 | 0.00 | 0.00 | 0.00 | 70 | 1027.1 |
| 20260507012024 | 60 | 0 | 1.7 | 5.2 | 0.00 | 0.00 | 0.00 | 70 | 1027.1 |
| 20260507011623 | 60 | 260 | 1.7 | 4.3 | 0.00 | 0.00 | 0.00 | 69 | 1027.1 |
| 20260507011222 | 60 | 334 | 3.5 | 5.2 | 0.00 | 0.00 | 0.00 | 69 | 1027.1 |
| 20260507010821 | 60 | 345 | 2.6 | 5.2 | 0.00 | 0.00 | 0.00 | 68 | 1027.0 |
| 20260507010420 | 61 | 1 | 2.6 | 5.2 | 0.00 | 0.00 | 0.00 | 68 | 1027.0 |
| 20260507010019 | 61 | 322 | 2.6 | 5.2 | 0.00 | 0.00 | 0.00 | 68 | 1027.0 |
| 20260507005618 | 61 | 190 | 1.7 | 6.1 | 0.00 | 0.00 | 0.00 | 68 | 1027.0 |
| 20260507005217 | 61 | 311 | 3.5 | 4.3 | 0.00 | 0.00 | 0.00 | 67 | 1027.0 |
| 20260507004816 | 62 | 313 | 2.6 | 7.0 | 0.00 | 0.00 | 0.00 | 67 | 1027.1 |
| 20260507004415 | 62 | 271 | 2.6 | 4.3 | 0.00 | 0.00 | 0.00 | 67 | 1027.1 |
| 20260507004014 | 62 | 282 | 2.6 | 4.3 | 0.00 | 0.00 | 0.00 | 66 | 1027.0 |
| 20260507003613 | 63 | 319 | 2.6 | 4.3 | 0.00 | 0.00 | 0.00 | 66 | 1027.1 |
| 20260507003213 | 63 | 325 | 3.5 | 4.3 | 0.00 | 0.00 | 0.00 | 66 | 1027.2 |
| 20260507002812 | 63 | 316 | 1.7 | 5.2 | 0.00 | 0.00 | 0.00 | 66 | 1027.2 |
| 20260507002411 | 63 | 315 | 2.6 | 5.2 | 0.00 | 0.00 | 0.00 | 65 | 1027.1 |
| 20260507002010 | 63 | 346 | 1.7 | 5.2 | 0.00 | 0.00 | 0.00 | 65 | 1027.0 |
| 20260507001609 | 64 | 319 | 1.7 | 5.2 | 0.00 | 0.00 | 0.00 | 65 | 1027.0 |
| 20260507001208 | 64 | 287 | 3.5 | 4.3 | 0.00 | 0.00 | 0.00 | 65 | 1027.0 |
| 20260507000807 | 64 | 301 | 3.5 | 7.8 | 0.00 | 0.00 | 0.00 | 64 | 1027.0 |
| 20260507000406 | 64 | 357 | 1.7 | 7.0 | 0.00 | 0.00 | 0.00 | 64 | 1026.9 |
| 20260507000005 | 65 | 93 | 2.6 | 6.1 | 0.00 | 0.00 | 0.00 | 64 | 1026.9 |
| 20260506235604 | 65 | 316 | 3.5 | 5.2 | 0.00 | 0.00 | 0.00 | 64 | 1026.9 |
| 20260506235203 | 65 | 352 | 3.5 | 6.1 | 0.00 | 0.00 | 0.00 | 64 | 1026.9 |
| 20260506234802 | 65 | 325 | 4.3 | 6.1 | 0.00 | 0.00 | 0.00 | 63 | 1026.9 |
| 20260506234401 | 66 | 319 | 2.6 | 4.3 | 0.00 | 0.00 | 0.00 | 63 | 1026.9 |
| 20260506234001 | 66 | 285 | 2.6 | 5.2 | 0.00 | 0.00 | 0.00 | 63 | 1027.0 |
| 20260506233600 | 66 | 40 | 1.7 | 6.1 | 0.00 | 0.00 | 0.00 | 63 | 1026.9 |
| 20260506233159 | 66 | 358 | 5.2 | 6.1 | 0.00 | 0.00 | 0.00 | 63 | 1027.0 |
| 20260506232758 | 66 | 356 | 2.6 | 3.5 | 0.00 | 0.00 | 0.00 | 63 | 1027.0 |
| 20260506232357 | 67 | 358 | 1.7 | 4.3 | 0.00 | 0.00 | 0.00 | 63 | 1027.0 |
| 20260506231956 | 67 | 323 | 2.6 | 4.3 | 0.00 | 0.00 | 0.00 | 62 | 1027.0 |
| 20260506231555 | 67 | 325 | 1.7 | 4.3 | 0.00 | 0.00 | 0.00 | 62 | 1027.1 |
| 20260506231154 | 67 | 308 | 1.7 | 5.2 | 0.00 | 0.00 | 0.00 | 62 | 1027.2 |
| 20260506230753 | 67 | 349 | 3.5 | 4.3 | 0.00 | 0.00 | 0.00 | 62 | 1027.1 |
| 20260506230352 | 68 | 262 | 1.7 | 4.3 | 0.00 | 0.00 | 0.00 | 62 | 1027.2 |
| 20260506225952 | 68 | 309 | 1.7 | 4.3 | 0.00 | 0.00 | 0.00 | 62 | 1027.3 |
| 20260506225550 | 68 | 282 | 2.6 | 3.5 | 0.00 | 0.00 | 0.00 | 62 | 1027.3 |
| 20260506225149 | 68 | 55 | 1.7 | 3.5 | 0.00 | 0.00 | 0.00 | 62 | 1027.3 |
| 20260506224748 | 68 | 312 | 1.7 | 3.5 | 0.00 | 0.00 | 0.00 | 62 | 1027.3 |
| 20260506224347 | 68 | 78 | 1.7 | 4.3 | 0.00 | 0.00 | 0.00 | 62 | 1027.4 |
| 20260506223946 | 68 | 272 | 2.6 | 4.3 | 0.00 | 0.00 | 0.00 | 62 | 1027.3 |
| 20260506223546 | 68 | 9 | 0.9 | 5.2 | 0.00 | 0.00 | 0.00 | 62 | 1027.5 |
| 20260506223145 | 68 | 316 | 2.6 | 5.2 | 0.00 | 0.00 | 0.00 | 62 | 1027.4 |
| 20260506222744 | 68 | 47 | 1.7 | 3.5 | 0.00 | 0.00 | 0.00 | 62 | 1027.5 |
| 20260506222343 | 68 | 272 | 0.9 | 4.3 | 0.00 | 0.00 | 0.00 | 61 | 1027.6 |
| 20260506221942 | 68 | 262 | 1.7 | 4.3 | 0.00 | 0.00 | 0.00 | 61 | 1027.6 |
| 20260506221541 | 68 | 315 | 1.7 | 5.2 | 0.00 | 0.00 | 0.00 | 61 | 1027.6 |
| 20260506221140 | 68 | 36 | 5.2 | 6.1 | 0.00 | 0.00 | 0.00 | 61 | 1027.6 |
| 20260506220739 | 68 | 328 | 1.7 | 7.0 | 0.00 | 0.00 | 0.00 | 61 | 1027.6 |
| 20260506220338 | 68 | 333 | 7.0 | 7.0 | 0.00 | 0.00 | 0.00 | 60 | 1027.6 |
| 20260506215937 | 68 | 42 | 1.7 | 3.5 | 0.00 | 0.00 | 0.00 | 61 | 1027.6 |
| 20260506215536 | 69 | 274 | 1.7 | 3.5 | 0.00 | 0.00 | 0.00 | 60 | 1027.8 |
| 20260506215135 | 69 | 192 | 2.6 | 4.3 | 0.00 | 0.00 | 0.00 | 60 | 1027.8 |
| 20260506214735 | 69 | 244 | 2.6 | 4.3 | 0.00 | 0.00 | 0.00 | 60 | 1027.7 |
| 20260506214334 | 69 | 37 | 0.9 | 4.3 | 0.00 | 0.00 | 0.00 | 60 | 1027.7 |
| 20260506213933 | 70 | 343 | 0.9 | 3.5 | 0.00 | 0.00 | 0.00 | 59 | 1027.8 |
| 20260506213532 | 70 | 133 | 2.6 | 3.5 | 0.00 | 0.00 | 0.00 | 59 | 1027.8 |
| 20260506213131 | 71 | 4 | 3.5 | 4.3 | 0.00 | 0.00 | 0.00 | 59 | 1027.9 |
| 20260506212730 | 71 | 75 | 0.9 | 7.8 | 0.00 | 0.00 | 0.00 | 59 | 1027.9 |
| 20260506212329 | 72 | 53 | 7.8 | 7.8 | 0.00 | 0.00 | 0.00 | 59 | 1027.8 |
| 20260506211928 | 72 | 303 | 1.7 | 3.5 | 0.00 | 0.00 | 0.00 | 59 | 1027.9 |
| 20260506211527 | 72 | 185 | 0.9 | 6.1 | 0.00 | 0.00 | 0.00 | 59 | 1027.9 |
| 20260506211126 | 73 | 328 | 2.6 | 5.2 | 0.00 | 0.00 | 0.00 | 59 | 1028.0 |
| 20260506210725 | 73 | 267 | 0.9 | 4.3 | 0.00 | 0.00 | 0.00 | 59 | 1028.0 |
| 20260506210324 | 73 | 41 | 0.9 | 2.6 | 0.00 | 0.00 | 0.00 | 59 | 1028.0 |
| 20260506205923 | 73 | 51 | 0.9 | 2.6 | 0.00 | 0.00 | 0.00 | 60 | 1028.0 |
| 20260506205522 | 73 | 292 | 0.9 | 3.5 | 0.00 | 0.00 | 0.00 | 60 | 1028.0 |
| 20260506205121 | 72 | 218 | 0.9 | 2.6 | 0.00 | 0.00 | 0.00 | 60 | 1028.0 |
| 20260506204720 | 72 | 251 | 0.9 | 2.6 | 0.00 | 0.00 | 0.00 | 61 | 1027.9 |
| 20260506204319 | 71 | 256 | 0.9 | 1.7 | 0.00 | 0.00 | 0.00 | 61 | 1027.9 |
| 20260506203919 | 71 | 299 | 0.9 | 2.6 | 0.00 | 0.00 | 0.00 | 60 | 1027.9 |
| 20260506203518 | 70 | 238 | 1.7 | 2.6 | 0.00 | 0.00 | 0.00 | 60 | 1028.0 |
| 20260506203117 | 70 | 240 | 1.7 | 2.6 | 0.00 | 0.00 | 0.00 | 60 | 1027.9 |
| 20260506202716 | 70 | 356 | 0.9 | 2.6 | 0.00 | 0.00 | 0.00 | 60 | 1027.9 |
| 20260506202315 | 70 | 4 | 0.9 | 3.5 | 0.00 | 0.00 | 0.00 | 60 | 1027.9 |
| 20260506201914 | 70 | 4 | 1.7 | 3.5 | 0.00 | 0.00 | 0.00 | 60 | 1027.9 |
| 20260506201513 | 70 | 346 | 0.0 | 2.6 | 0.00 | 0.00 | 0.00 | 60 | 1027.9 |
| 20260506201112 | 70 | 324 | 0.0 | 3.5 | 0.00 | 0.00 | 0.00 | 60 | 1027.9 |
| 20260506200711 | 69 | 36 | 0.9 | 1.7 | 0.00 | 0.00 | 0.00 | 61 | 1028.0 |
| 20260506200310 | 69 | 21 | 0.0 | 2.6 | 0.00 | 0.00 | 0.00 | 61 | 1028.0 |
| 20260506195909 | 69 | 32 | 0.9 | 1.7 | 0.00 | 0.00 | 0.00 | 61 | 1028.0 |
| 20260506195508 | 69 | 66 | 0.9 | 2.6 | 0.00 | 0.00 | 0.00 | 61 | 1028.0 |
| 20260506195107 | 69 | 8 | 1.7 | 2.6 | 0.00 | 0.00 | 0.00 | 61 | 1028.0 |
| 20260506194707 | 68 | 355 | 0.9 | 2.6 | 0.00 | 0.00 | 0.00 | 61 | 1028.0 |
| 20260506194306 | 68 | 19 | 1.7 | 3.5 | 0.00 | 0.00 | 0.00 | 61 | 1028.0 |
| 20260506193905 | 68 | 8 | 0.0 | 2.6 | 0.00 | 0.00 | 0.00 | 62 | 1028.1 |
| 20260506193504 | 68 | 12 | 0.9 | 2.6 | 0.00 | 0.00 | 0.00 | 62 | 1028.1 |
| 20260506193103 | 67 | 15 | 0.0 | 4.3 | 0.00 | 0.00 | 0.00 | 62 | 1028.1 |
| 20260506192702 | 67 | 30 | 1.7 | 3.5 | 0.00 | 0.00 | 0.00 | 62 | 1028.2 |
| 20260506192301 | 67 | 12 | 1.7 | 2.6 | 0.00 | 0.00 | 0.00 | 62 | 1028.2 |
| 20260506191900 | 66 | 1 | 0.9 | 4.3 | 0.00 | 0.00 | 0.00 | 63 | 1028.1 |
| 20260506191459 | 66 | 53 | 2.6 | 2.6 | 0.00 | 0.00 | 0.00 | 63 | 1028.1 |
| 20260506191058 | 65 | 322 | 0.9 | 2.6 | 0.00 | 0.00 | 0.00 | 63 | 1028.1 |
| 20260506190657 | 65 | 40 | 2.6 | 4.3 | 0.00 | 0.00 | 0.00 | 62 | 1028.2 |
| 20260506190256 | 65 | 5 | 0.9 | 3.5 | 0.00 | 0.00 | 0.00 | 63 | 1028.2 |
| 20260506185855 | 65 | 321 | 1.7 | 3.5 | 0.00 | 0.00 | 0.00 | 63 | 1028.2 |
| 20260506185454 | 65 | 43 | 1.7 | 3.5 | 0.00 | 0.00 | 0.00 | 63 | 1028.1 |
| 20260506185053 | 65 | 2 | 2.6 | 3.5 | 0.00 | 0.00 | 0.00 | 63 | 1028.2 |
| 20260506184653 | 65 | 329 | 1.7 | 3.5 | 0.00 | 0.00 | 0.00 | 64 | 1028.2 |
| 20260506184252 | 65 | 353 | 1.7 | 4.3 | 0.00 | 0.00 | 0.00 | 63 | 1028.2 |
| 20260506183851 | 65 | 355 | 3.5 | 4.3 | 0.00 | 0.00 | 0.00 | 64 | 1028.2 |
| 20260506183450 | 65 | 3 | 4.3 | 4.3 | 0.00 | 0.00 | 0.00 | 64 | 1028.3 |
| 20260506183049 | 65 | 354 | 0.9 | 4.3 | 0.00 | 0.00 | 0.00 | 64 | 1028.3 |
| 20260506182648 | 65 | 7 | 2.6 | 3.5 | 0.00 | 0.00 | 0.00 | 64 | 1028.2 |
| 20260506182247 | 65 | 40 | 2.6 | 3.5 | 0.00 | 0.00 | 0.00 | 65 | 1028.3 |
| 20260506181846 | 65 | 351 | 0.9 | 2.6 | 0.00 | 0.00 | 0.00 | 65 | 1028.3 |
| 20260506181445 | 65 | 353 | 0.9 | 3.5 | 0.00 | 0.00 | 0.00 | 65 | 1028.4 |
| 20260506181044 | 65 | 343 | 2.6 | 5.2 | 0.00 | 0.00 | 0.00 | 66 | 1028.3 |
| 20260506180644 | 64 | 12 | 1.7 | 3.5 | 0.00 | 0.00 | 0.00 | 66 | 1028.4 |
| 20260506180243 | 64 | 351 | 0.9 | 2.6 | 0.00 | 0.00 | 0.00 | 66 | 1028.5 |
| 20260506175842 | 64 | 5 | 0.0 | 3.5 | 0.00 | 0.00 | 0.00 | 66 | 1028.3 |
| 20260506175441 | 64 | 11 | 2.6 | 3.5 | 0.00 | 0.00 | 0.00 | 66 | 1028.3 |
| 20260506175040 | 64 | 354 | 0.9 | 3.5 | 0.00 | 0.00 | 0.00 | 67 | 1028.2 |
| 20260506174639 | 63 | 343 | 1.7 | 3.5 | 0.00 | 0.00 | 0.00 | 67 | 1028.3 |
| 20260506174238 | 63 | 0 | 1.7 | 3.5 | 0.00 | 0.00 | 0.00 | 67 | 1028.2 |
| 20260506173837 | 63 | 358 | 1.7 | 4.3 | 0.00 | 0.00 | 0.00 | 67 | 1028.1 |
| 20260506173436 | 63 | 1 | 1.7 | 3.5 | 0.00 | 0.00 | 0.00 | 68 | 1028.2 |
| 20260506173035 | 62 | 107 | 0.0 | 0.0 | 0.00 | 0.00 | 0.00 | 68 | 1028.2 |
| 20260506172640 | 62 | 11 | 1.7 | 2.6 | 0.00 | 0.00 | 0.00 | 68 | 1028.1 |
| 20260506172239 | 62 | 358 | 2.6 | 3.5 | 0.00 | 0.00 | 0.00 | 68 | 1028.1 |
| 20260506171838 | 61 | 19 | 0.9 | 3.5 | 0.00 | 0.00 | 0.00 | 68 | 1028.1 |
| 20260506171437 | 61 | 338 | 2.6 | 3.5 | 0.00 | 0.00 | 0.00 | 68 | 1028.1 |
| 20260506171036 | 61 | 5 | 0.9 | 2.6 | 0.00 | 0.00 | 0.00 | 68 | 1028.1 |
| 20260506170635 | 61 | 356 | 1.7 | 2.6 | 0.00 | 0.00 | 0.00 | 68 | 1028.1 |
| 20260506170234 | 60 | 13 | 0.9 | 4.3 | 0.00 | 0.00 | 0.00 | 68 | 1028.1 |
| 20260506165833 | 60 | 22 | 4.3 | 4.3 | 0.00 | 0.00 | 0.00 | 68 | 1028.1 |
| 20260506165432 | 60 | 359 | 0.9 | 6.1 | 0.00 | 0.00 | 0.00 | 68 | 1028.0 |
| 20260506165031 | 60 | 40 | 4.3 | 6.1 | 0.00 | 0.00 | 0.00 | 68 | 1027.9 |
| 20260506164631 | 60 | 22 | 2.6 | 4.3 | 0.00 | 0.00 | 0.00 | 69 | 1027.8 |
| 20260506164230 | 60 | 358 | 0.9 | 2.6 | 0.00 | 0.00 | 0.00 | 69 | 1027.9 |
| 20260506163829 | 59 | 351 | 1.7 | 2.6 | 0.00 | 0.00 | 0.00 | 69 | 1027.8 |
| 20260506163428 | 59 | 348 | 1.7 | 2.6 | 0.00 | 0.00 | 0.00 | 70 | 1027.8 |
| 20260506163027 | 58 | 320 | 1.7 | 3.5 | 0.00 | 0.00 | 0.00 | 70 | 1027.9 |
| 20260506162626 | 58 | 340 | 1.7 | 4.3 | 0.00 | 0.00 | 0.00 | 70 | 1027.9 |
| 20260506162225 | 58 | 8 | 2.6 | 4.3 | 0.00 | 0.00 | 0.00 | 70 | 1027.8 |
| 20260506161824 | 58 | 359 | 1.7 | 4.3 | 0.00 | 0.00 | 0.00 | 70 | 1027.9 |
| 20260506161423 | 58 | 356 | 0.9 | 5.2 | 0.00 | 0.00 | 0.00 | 71 | 1027.9 |
| 20260506161022 | 58 | 345 | 2.6 | 4.3 | 0.00 | 0.00 | 0.00 | 73 | 1027.9 |
| 20260506160621 | 58 | 5 | 0.9 | 2.6 | 0.00 | 0.00 | 0.00 | 73 | 1027.9 |
| 20260506160220 | 57 | 10 | 1.7 | 2.6 | 0.00 | 0.00 | 0.00 | 74 | 1027.9 |
| 20260506155820 | 57 | 353 | 1.7 | 3.5 | 0.00 | 0.00 | 0.00 | 74 | 1027.9 |
| 20260506155419 | 56 | 5 | 2.6 | 3.5 | 0.00 | 0.00 | 0.00 | 74 | 1027.9 |
| 20260506155018 | 56 | 330 | 1.7 | 2.6 | 0.00 | 0.00 | 0.00 | 75 | 1028.0 |
| 20260506154617 | 55 | 0 | 1.7 | 4.3 | 0.00 | 0.00 | 0.00 | 75 | 1027.9 |
| 20260506154216 | 55 | 5 | 0.9 | 3.5 | 0.00 | 0.00 | 0.00 | 75 | 1027.9 |
| 20260506153815 | 55 | 336 | 1.7 | 4.3 | 0.00 | 0.00 | 0.00 | 75 | 1027.8 |
| 20260506153414 | 54 | 297 | 2.6 | 4.3 | 0.00 | 0.00 | 0.00 | 74 | 1027.7 |
| 20260506153013 | 54 | 315 | 1.7 | 4.3 | 0.00 | 0.00 | 0.00 | 75 | 1027.7 |
| 20260506152612 | 54 | 0 | 3.5 | 4.3 | 0.00 | 0.00 | 0.00 | 75 | 1027.6 |
| 20260506152211 | 54 | 328 | 2.6 | 5.2 | 0.00 | 0.00 | 0.00 | 75 | 1027.6 |
| 20260506151810 | 54 | 338 | 0.9 | 4.3 | 0.00 | 0.00 | 0.00 | 76 | 1027.7 |
| 20260506151409 | 54 | 352 | 2.6 | 5.2 | 0.00 | 0.00 | 0.00 | 77 | 1027.7 |
| 20260506151008 | 54 | 348 | 2.6 | 4.3 | 0.00 | 0.00 | 0.00 | 77 | 1027.7 |
| 20260506150607 | 54 | 357 | 2.6 | 4.3 | 0.00 | 0.00 | 0.00 | 78 | 1027.7 |
| 20260506150206 | 53 | 309 | 2.6 | 3.5 | 0.00 | 0.00 | 0.00 | 79 | 1027.8 |
| 20260506145805 | 53 | 4 | 0.9 | 2.6 | 0.00 | 0.00 | 0.00 | 79 | 1027.7 |
| 20260506145405 | 53 | 0 | 1.7 | 5.2 | 0.00 | 0.00 | 0.00 | 78 | 1027.6 |
| 20260506145004 | 53 | 325 | 1.7 | 3.5 | 0.00 | 0.00 | 0.00 | 79 | 1027.6 |
| 20260506144603 | 53 | 0 | 0.9 | 3.5 | 0.00 | 0.00 | 0.00 | 80 | 1027.8 |
| 20260506144202 | 52 | 346 | 0.9 | 3.5 | 0.00 | 0.00 | 0.00 | 80 | 1027.6 |
| 20260506143801 | 52 | 356 | 0.9 | 1.7 | 0.00 | 0.00 | 0.00 | 81 | 1027.6 |
| 20260506143400 | 52 | 358 | 1.7 | 2.6 | 0.00 | 0.00 | 0.00 | 81 | 1027.7 |
| 20260506142959 | 52 | 357 | 0.0 | 3.5 | 0.00 | 0.00 | 0.00 | 82 | 1027.7 |
| 20260506142558 | 52 | 346 | 1.7 | 3.5 | 0.00 | 0.00 | 0.00 | 83 | 1027.6 |
| 20260506142157 | 51 | 324 | 0.9 | 1.7 | 0.00 | 0.00 | 0.00 | 84 | 1027.7 |
| 20260506141756 | 51 | 317 | 0.9 | 0.9 | 0.00 | 0.00 | 0.00 | 84 | 1027.6 |
| 20260506141355 | 50 | 342 | 0.0 | 2.6 | 0.00 | 0.00 | 0.00 | 85 | 1027.7 |
| 20260506140954 | 50 | 346 | 0.0 | 2.6 | 0.00 | 0.00 | 0.00 | 85 | 1027.7 |
| 20260506140554 | 49 | 356 | 0.0 | 2.6 | 0.00 | 0.00 | 0.00 | 85 | 1027.7 |
| 20260506140153 | 49 | 10 | 0.9 | 4.3 | 0.00 | 0.00 | 0.00 | 85 | 1027.5 |
| 20260506135752 | 48 | 320 | 2.6 | 2.6 | 0.00 | 0.00 | 0.00 | 86 | 1027.5 |
| 20260506135351 | 48 | 341 | 0.9 | 3.5 | 0.00 | 0.00 | 0.00 | 86 | 1027.5 |
| 20260506134950 | 47 | 325 | 1.7 | 3.5 | 0.00 | 0.00 | 0.00 | 86 | 1027.3 |
| 20260506134549 | 47 | 321 | 0.9 | 3.5 | 0.00 | 0.00 | 0.00 | 86 | 1027.4 |
| 20260506134148 | 47 | 339 | 0.9 | 1.7 | 0.00 | 0.00 | 0.00 | 86 | 1027.3 |
| 20260506133747 | 46 | 327 | 0.0 | 1.7 | 0.00 | 0.00 | 0.00 | 86 | 1027.3 |
| 20260506133346 | 46 | 349 | 0.9 | 2.6 | 0.00 | 0.00 | 0.00 | 86 | 1027.4 |
| 20260506132945 | 45 | 323 | 0.0 | 2.6 | 0.00 | 0.00 | 0.00 | 86 | 1027.3 |
| 20260506132544 | 45 | 304 | 0.9 | 2.6 | 0.00 | 0.00 | 0.00 | 86 | 1027.3 |
| 20260506132143 | 45 | 312 | 0.9 | 1.7 | 0.00 | 0.00 | 0.00 | 86 | 1027.2 |
| 20260506131744 | 45 | 308 | 0.9 | 3.5 | 0.00 | 0.00 | 0.00 | 86 | 1027.3 |
| 20260506131341 | 45 | 337 | 0.9 | 4.3 | 0.00 | 0.00 | 0.00 | 86 | 1027.1 |
| 20260506130940 | 45 | 354 | 2.6 | 2.6 | 0.00 | 0.00 | 0.00 | 86 | 1027.1 |
| 20260506130539 | 45 | 347 | 1.7 | 2.6 | 0.00 | 0.00 | 0.00 | 86 | 1027.2 |
| 20260506130139 | 45 | 337 | 0.9 | 1.7 | 0.00 | 0.00 | 0.00 | 86 | 1027.2 |
| 20260506125738 | 45 | 330 | 1.7 | 3.5 | 0.00 | 0.00 | 0.00 | 86 | 1027.1 |
| 20260506125337 | 45 | 346 | 3.5 | 5.2 | 0.00 | 0.00 | 0.00 | 86 | 1027.0 |
| 20260506124936 | 45 | 341 | 2.6 | 3.5 | 0.00 | 0.00 | 0.00 | 86 | 1027.1 |
| 20260506124535 | 45 | 329 | 1.7 | 4.3 | 0.00 | 0.00 | 0.00 | 86 | 1027.1 |
| 20260506124134 | 45 | 330 | 1.7 | 4.3 | 0.00 | 0.00 | 0.00 | 86 | 1027.0 |
| 20260506123733 | 45 | 279 | 1.7 | 3.5 | 0.00 | 0.00 | 0.00 | 86 | 1027.0 |
| 20260506123332 | 45 | 337 | 1.7 | 5.2 | 0.00 | 0.00 | 0.00 | 86 | 1026.9 |
| 20260506122931 | 45 | 308 | 2.6 | 6.1 | 0.00 | 0.00 | 0.00 | 86 | 1026.9 |
| 20260506122530 | 45 | 322 | 3.5 | 5.2 | 0.00 | 0.00 | 0.00 | 86 | 1027.0 |
| 20260506122129 | 45 | 344 | 4.3 | 5.2 | 0.00 | 0.00 | 0.00 | 85 | 1027.0 |
| 20260506121728 | 45 | 12 | 1.7 | 3.5 | 0.00 | 0.00 | 0.00 | 85 | 1027.0 |
| 20260506121327 | 45 | 322 | 0.9 | 2.6 | 0.00 | 0.00 | 0.00 | 85 | 1027.0 |
| 20260506120927 | 45 | 310 | 1.7 | 2.6 | 0.00 | 0.00 | 0.00 | 85 | 1026.9 |
| 20260506120527 | 45 | 348 | 0.9 | 2.6 | 0.00 | 0.00 | 0.00 | 85 | 1027.0 |
| 20260506120125 | 45 | 352 | 0.9 | 2.6 | 0.00 | 0.00 | 0.00 | 85 | 1027.0 |
| 20260506115724 | 45 | 323 | 1.7 | 3.5 | 0.00 | 0.00 | 0.00 | 85 | 1027.0 |
| 20260506115323 | 45 | 297 | 0.9 | 3.5 | 0.00 | 0.00 | 0.00 | 85 | 1027.0 |
| 20260506114922 | 45 | 350 | 0.9 | 1.7 | 0.00 | 0.00 | 0.00 | 85 | 1026.9 |
| 20260506114521 | 45 | 40 | 0.9 | 2.6 | 0.00 | 0.00 | 0.00 | 85 | 1027.0 |
| 20260506114120 | 45 | 265 | 1.7 | 2.6 | 0.00 | 0.00 | 0.00 | 85 | 1026.9 |
| 20260506113719 | 45 | 326 | 2.6 | 2.6 | 0.00 | 0.00 | 0.00 | 85 | 1026.9 |
| 20260506113318 | 45 | 280 | 2.6 | 2.6 | 0.00 | 0.00 | 0.00 | 85 | 1026.9 |
| 20260506112917 | 45 | 302 | 1.7 | 2.6 | 0.00 | 0.00 | 0.00 | 85 | 1026.9 |
| 20260506112516 | 45 | 286 | 1.7 | 1.7 | 0.00 | 0.00 | 0.00 | 85 | 1026.9 |
| 20260506112115 | 45 | 297 | 0.9 | 1.7 | 0.00 | 0.00 | 0.00 | 85 | 1026.9 |
| 20260506111716 | 45 | 322 | 1.7 | 3.5 | 0.00 | 0.00 | 0.00 | 85 | 1026.9 |
| 20260506111313 | 46 | 324 | 1.7 | 3.5 | 0.00 | 0.00 | 0.00 | 85 | 1026.8 |
| 20260506110913 | 46 | 263 | 0.9 | 3.5 | 0.00 | 0.00 | 0.00 | 85 | 1026.8 |
| 20260506110512 | 46 | 328 | 1.7 | 4.3 | 0.00 | 0.00 | 0.00 | 85 | 1026.8 |
| 20260506110111 | 46 | 322 | 4.3 | 4.3 | 0.00 | 0.00 | 0.00 | 85 | 1026.7 |
| 20260506105710 | 46 | 347 | 2.6 | 4.3 | 0.00 | 0.00 | 0.00 | 85 | 1026.7 |
| 20260506105309 | 46 | 350 | 3.5 | 6.1 | 0.00 | 0.00 | 0.00 | 85 | 1026.7 |
| 20260506104908 | 46 | 356 | 5.2 | 7.8 | 0.00 | 0.00 | 0.00 | 85 | 1026.7 |
| 20260506104507 | 46 | 0 | 5.2 | 6.1 | 0.00 | 0.00 | 0.00 | 85 | 1026.6 |
| 20260506104106 | 46 | 338 | 1.7 | 2.6 | 0.00 | 0.00 | 0.00 | 85 | 1026.8 |
| 20260506103705 | 46 | 349 | 2.6 | 3.5 | 0.00 | 0.00 | 0.00 | 85 | 1026.8 |
| 20260506103304 | 45 | 345 | 2.6 | 5.2 | 0.00 | 0.00 | 0.00 | 85 | 1026.7 |
| 20260506102903 | 45 | 357 | 2.6 | 4.3 | 0.00 | 0.00 | 0.00 | 85 | 1026.6 |
| 20260506102502 | 45 | 349 | 2.6 | 3.5 | 0.00 | 0.00 | 0.00 | 85 | 1026.6 |
| 20260506102101 | 45 | 349 | 1.7 | 2.6 | 0.00 | 0.00 | 0.00 | 85 | 1026.7 |
| 20260506101701 | 45 | 324 | 1.7 | 4.3 | 0.00 | 0.00 | 0.00 | 85 | 1026.7 |
| 20260506101300 | 45 | 351 | 1.7 | 4.3 | 0.00 | 0.00 | 0.00 | 85 | 1026.7 |
| 20260506100859 | 45 | 350 | 1.7 | 3.5 | 0.00 | 0.00 | 0.00 | 85 | 1026.7 |
| 20260506100458 | 45 | 347 | 1.7 | 3.5 | 0.00 | 0.00 | 0.00 | 85 | 1026.8 |
| 20260506100057 | 45 | 331 | 2.6 | 3.5 | 0.00 | 0.00 | 0.00 | 84 | 1026.7 |
| 20260506095656 | 45 | 319 | 1.7 | 4.3 | 0.00 | 0.00 | 0.00 | 84 | 1026.7 |
| 20260506095255 | 46 | 326 | 0.9 | 4.3 | 0.00 | 0.00 | 0.00 | 84 | 1026.7 |
| 20260506094854 | 46 | 331 | 1.7 | 2.6 | 0.00 | 0.00 | 0.00 | 84 | 1026.6 |
| 20260506094453 | 46 | 325 | 2.6 | 4.3 | 0.00 | 0.00 | 0.00 | 84 | 1026.7 |
| 20260506094052 | 46 | 348 | 2.6 | 4.3 | 0.00 | 0.00 | 0.00 | 84 | 1026.7 |
| 20260506093651 | 46 | 353 | 2.6 | 7.0 | 0.00 | 0.00 | 0.00 | 84 | 1026.7 |
| 20260506093250 | 46 | 342 | 3.5 | 7.0 | 0.00 | 0.00 | 0.00 | 84 | 1026.7 |
| 20260506092850 | 46 | 2 | 4.3 | 6.1 | 0.00 | 0.00 | 0.00 | 84 | 1026.7 |
| 20260506092449 | 46 | 347 | 5.2 | 5.2 | 0.00 | 0.00 | 0.00 | 84 | 1026.8 |
| 20260506092047 | 46 | 351 | 4.3 | 4.3 | 0.00 | 0.00 | 0.00 | 84 | 1026.8 |
| 20260506091647 | 46 | 51 | 1.7 | 6.1 | 0.00 | 0.00 | 0.00 | 84 | 1026.8 |
| 20260506091246 | 46 | 348 | 3.5 | 5.2 | 0.00 | 0.00 | 0.00 | 85 | 1026.8 |
| 20260506090845 | 46 | 350 | 3.5 | 7.0 | 0.00 | 0.00 | 0.00 | 85 | 1026.7 |
| 20260506090444 | 46 | 350 | 7.0 | 7.0 | 0.00 | 0.00 | 0.00 | 85 | 1026.8 |
| 20260506090043 | 46 | 326 | 3.5 | 6.1 | 0.00 | 0.00 | 0.00 | 85 | 1026.8 |
| 20260506085645 | 46 | 312 | 0.9 | 6.1 | 0.00 | 0.00 | 0.00 | 85 | 1026.8 |
| 20260506085642 | 46 | 312 | 0.9 | 6.1 | 0.00 | 0.00 | 0.00 | 85 | 1026.8 |
| 20260506085241 | 45 | 339 | 4.3 | 5.2 | 0.00 | 0.00 | 0.00 | 85 | 1026.8 |
| 20260506084840 | 45 | 26 | 0.9 | 7.0 | 0.00 | 0.00 | 0.00 | 85 | 1026.9 |
| 20260506084439 | 45 | 221 | 0.9 | 3.5 | 0.00 | 0.00 | 0.00 | 85 | 1027.0 |
| 20260506084038 | 46 | 156 | 0.9 | 3.5 | 0.00 | 0.00 | 0.00 | 85 | 1027.0 |
| 20260506083637 | 46 | 312 | 3.5 | 3.5 | 0.00 | 0.00 | 0.00 | 85 | 1026.9 |
| 20260506083236 | 46 | 90 | 1.7 | 5.2 | 0.00 | 0.00 | 0.00 | 85 | 1026.9 |
| 20260506082835 | 46 | 290 | 1.7 | 3.5 | 0.00 | 0.00 | 0.00 | 85 | 1027.0 |
| 20260506082435 | 46 | 279 | 0.9 | 4.3 | 0.00 | 0.00 | 0.00 | 85 | 1026.9 |
| 20260506082034 | 46 | 321 | 2.6 | 2.6 | 0.00 | 0.00 | 0.00 | 85 | 1027.0 |
| 20260506081633 | 46 | 295 | 1.7 | 3.5 | 0.00 | 0.00 | 0.00 | 85 | 1027.0 |
| 20260506081232 | 46 | 289 | 0.9 | 4.3 | 0.00 | 0.00 | 0.00 | 85 | 1027.0 |
| 20260506080831 | 46 | 324 | 1.7 | 4.3 | 0.00 | 0.00 | 0.00 | 85 | 1026.9 |
| 20260506080654 | 46 | 299 | 0.9 | 3.5 | 0.00 | 0.00 | 0.00 | 85 | 1026.9 |
| 20260506080430 | 46 | 299 | 0.9 | 3.5 | 0.00 | 0.00 | 0.00 | 85 | 1026.9 |
| 20260506073223 | 46 | 288 | 4.3 | 7.0 | 0.00 | 0.00 | 0.00 | 86 | 1026.9 |
| 20260506072822 | 46 | 334 | 6.1 | 7.8 | 0.00 | 0.00 | 0.00 | 86 | 1026.8 |
| 20260506072421 | 46 | 349 | 4.3 | 6.1 | 0.00 | 0.00 | 0.00 | 87 | 1026.8 |
| 20260506072020 | 46 | 351 | 2.6 | 5.2 | 0.00 | 0.00 | 0.00 | 87 | 1026.9 |
| 20260506071622 | 46 | 346 | 3.5 | 5.2 | 0.00 | 0.00 | 0.00 | 88 | 1026.8 |
| 20260506071619 | 46 | 346 | 3.5 | 5.2 | 0.00 | 0.00 | 0.00 | 88 | 1026.8 |
| 20260506071218 | 46 | 319 | 2.6 | 6.1 | 0.00 | 0.00 | 0.00 | 88 | 1026.7 |
| 20260506070817 | 46 | 301 | 3.5 | 6.1 | 0.00 | 0.00 | 0.00 | 88 | 1026.7 |
| 20260506070416 | 46 | 320 | 0.9 | 6.1 | 0.00 | 0.00 | 0.00 | 88 | 1026.7 |
| 20260506062407 | 45 | 41 | 1.7 | 7.8 | 0.00 | 0.00 | 0.00 | 90 | 1026.4 |
| 20260506062006 | 45 | 2 | 2.6 | 7.8 | 0.00 | 0.00 | 0.00 | 90 | 1026.4 |
| 20260506061605 | 45 | 313 | 3.5 | 5.2 | 0.00 | 0.00 | 0.00 | 90 | 1026.4 |
| 20260506061204 | 45 | 314 | 3.5 | 5.2 | 0.00 | 0.00 | 0.00 | 90 | 1026.5 |
| 20260506060803 | 45 | 140 | 1.7 | 3.5 | 0.00 | 0.00 | 0.00 | 90 | 1026.4 |
| 20260506060402 | 45 | 273 | 1.7 | 4.3 | 0.00 | 0.00 | 0.00 | 90 | 1026.4 |
| 20260506051150 | 45 | 335 | 2.6 | 5.2 | 0.00 | 0.00 | 0.00 | 91 | 1026.1 |
| 20260506050749 | 45 | 317 | 0.9 | 4.3 | 0.00 | 0.00 | 0.00 | 91 | 1026.1 |
| 20260506050348 | 45 | 351 | 0.9 | 4.3 | 0.00 | 0.00 | 0.00 | 91 | 1026.1 |
| 20260506044744 | 45 | 248 | 0.9 | 3.5 | 0.00 | 0.00 | 0.00 | 90 | 1025.9 |
| 20260506044343 | 45 | 356 | 2.6 | 2.6 | 0.00 | 0.00 | 0.00 | 90 | 1026.0 |
| 20260506043943 | 45 | 306 | 0.0 | 4.3 | 0.00 | 0.00 | 0.00 | 89 | 1026.0 |
| 20260506043542 | 45 | 351 | 1.7 | 4.3 | 0.00 | 0.00 | 0.00 | 89 | 1025.9 |
| 20260506043141 | 45 | 349 | 2.6 | 4.3 | 0.00 | 0.00 | 0.00 | 89 | 1025.9 |
| 20260506042740 | 45 | 324 | 2.6 | 3.5 | 0.00 | 0.00 | 0.00 | 89 | 1025.8 |
| 20260506042339 | 45 | 352 | 3.5 | 3.5 | 0.00 | 0.00 | 0.00 | 89 | 1025.8 |
| 20260506041938 | 45 | 320 | 1.7 | 1.7 | 0.00 | 0.00 | 0.00 | 88 | 1025.7 |
| 20260506041537 | 45 | 339 | 0.9 | 5.2 | 0.00 | 0.00 | 0.00 | 88 | 1025.8 |
| 20260506041136 | 45 | 353 | 4.3 | 5.2 | 0.00 | 0.00 | 0.00 | 88 | 1025.8 |
| 20260506040735 | 45 | 309 | 2.6 | 4.3 | 0.00 | 0.00 | 0.00 | 88 | 1025.7 |
| 20260506040334 | 46 | 323 | 2.6 | 4.3 | 0.00 | 0.00 | 0.00 | 87 | 1025.6 |
| 20260506035933 | 46 | 352 | 2.6 | 7.8 | 0.00 | 0.00 | 0.00 | 87 | 1025.5 |
| 20260506035532 | 46 | 339 | 4.3 | 6.1 | 0.00 | 0.00 | 0.00 | 86 | 1025.5 |
| 20260506035131 | 46 | 341 | 2.6 | 3.5 | 0.00 | 0.00 | 0.00 | 85 | 1025.4 |
| 20260506034731 | 46 | 84 | 0.9 | 3.5 | 0.00 | 0.00 | 0.00 | 85 | 1025.3 |
| 20260506034330 | 46 | 358 | 0.9 | 3.5 | 0.00 | 0.00 | 0.00 | 84 | 1025.2 |
| 20260506033929 | 46 | 343 | 0.9 | 3.5 | 0.00 | 0.00 | 0.00 | 84 | 1025.2 |
| 20260506033529 | 47 | 326 | 0.9 | 4.3 | 0.00 | 0.00 | 0.00 | 84 | 1025.2 |
| 20260506033127 | 47 | 350 | 2.6 | 6.1 | 0.00 | 0.00 | 0.00 | 84 | 1025.0 |
| 20260506032726 | 47 | 329 | 4.3 | 6.1 | 0.00 | 0.00 | 0.00 | 84 | 1025.0 |
| 20260506032325 | 47 | 274 | 1.7 | 6.1 | 0.00 | 0.00 | 0.00 | 84 | 1024.9 |
| 20260506031924 | 47 | 292 | 1.7 | 8.7 | 0.00 | 0.00 | 0.00 | 84 | 1024.8 |
| 20260506031523 | 47 | 285 | 4.3 | 7.0 | 0.00 | 0.00 | 0.00 | 84 | 1024.7 |
| 20260506031122 | 47 | 6 | 4.3 | 7.8 | 0.00 | 0.00 | 0.00 | 83 | 1024.6 |
| 20260506030721 | 47 | 81 | 2.6 | 5.2 | 0.00 | 0.00 | 0.00 | 83 | 1024.5 |
| 20260506030320 | 47 | 284 | 2.6 | 4.3 | 0.00 | 0.00 | 0.00 | 83 | 1024.4 |